Content
SEND FEEDBACK

Daily
Averages
Monthly
Summary
Russia

SPRIGINO, RUSSIA


Home > Europe > Russia
Elevation: 528 feet     Latitude: 56 13N     Longitude: 043 49E

WEATHER
 
SELECT A DAY
Number of Records: 200,426;   Date Range: 3/24/97 - 12/23/14
 
SHARE

PRINT THIS DATA

[ ← Previous Day ]
WEATHER ALMANAC - FEBRUARY 13, 2013
[ Next Day → ]
[ °C ]   °F
Weather ElementAverageHighLow
Temperature18 °F26.6 °F (3:30 pm)5 °F (9:00 am)
Dewpoint10.5 °F14 °F (11:00 am)3.2 °F (9:00 am)
Humidity71.8 %92 % (7:30 am)48 % (4:00 pm)
Barometer30.49 in30.59 in (10:00 pm)30.42 in (12:30 am)
Wind Speed4 mph6.7 mph (12:30 am)
Weather ElementAverage
Visibility5.7 mi
Wind DirectionE (90.9 °)

Weather ElementTotal
Precipitation---
Heating Degree Days49.2 (Base 65)
Averaged from 55 records on February 13, 2013
WEATHER CONDITIONS BREAKOUT
WIND DIRECTION BREAKOUT
WEATHER BY HOUR - FEBRUARY 13, 2013
[ °C ]   °F
Local TimeTemperatureDewpointHumidityBarometerVisibilityWind DirectionWind SpeedGust SpeedPrecipitationEventsConditions
12:30 AM21.2 °F12.2 °F68 %30.42 in5.0 miESE (110°)6.7 mphMostly Cloudy
1:00 AM19.0 °F12.0 °F62 %30.45 in12.0 miEast (90°)4.5 mphOvercast
1:00 AM21.2 °F12.2 °F68 %30.42 in5.0 miEast (90°)4.5 mphMostly Cloudy
1:30 AM21.2 °F12.2 °F68 %30.42 in5.0 miESE (110°)6.7 mphMostly Cloudy
2:00 AM21.2 °F12.2 °F68 %30.42 in5.0 miESE (120°)6.7 mphMostly Cloudy
2:30 AM21.2 °F12.2 °F68 %30.42 in5.0 miESE (110°)6.7 mphMostly Cloudy
3:00 AM21.2 °F12.2 °F68 %30.42 in5.0 miESE (120°)6.7 mphMostly Cloudy
3:30 AM19.4 °F12.2 °F74 %30.42 in5.0 miEast (100°)4.5 mphMostly Cloudy
4:00 AM17.0 °F10.0 °F63 %30.47 in12.0 miEast (100°)4.5 mphOvercast
4:00 AM19.4 °F12.2 °F74 %30.42 in5.0 miESE (110°)4.5 mphMostly Cloudy
4:30 AM19.4 °F10.4 °F68 %30.42 in5.0 miEast (90°)4.5 mphMostly Cloudy
5:00 AM17.6 °F10.4 °F73 %30.45 in5.0 miESE (110°)4.5 mphMostly Cloudy
5:30 AM14.0 °F8.6 °F79 %30.45 in5.0 miEast (100°)4.5 mphScattered Clouds
6:00 AM14.0 °F8.6 °F79 %30.45 in5.0 miEast (100°)4.5 mphScattered Clouds
6:30 AM10.4 °F6.8 °F85 %30.45 in5.0 miEast (90°)4.5 mphScattered Clouds
7:00 AM14.0 °F10.0 °F75 %30.48 in12.0 miENE (70°)2.2 mphOvercast
7:00 AM10.4 °F6.8 °F85 %30.45 in3.7 miEast (100°)2.2 mphScattered Clouds
7:30 AM6.8 °F5.0 °F92 %30.45 in3.7 miCalmScattered Clouds
8:00 AM6.8 °F5.0 °F92 %30.45 in3.7 miCalmScattered Clouds
8:30 AM6.8 °F5.0 °F92 %30.45 in3.1 miCalmScattered Clouds
9:00 AM5.0 °F3.2 °F92 %30.48 in3.1 miCalmScattered Clouds
9:30 AM5.0 °F3.2 °F92 %30.48 in3.1 miCalmScattered Clouds
10:00 AM13.0 °F10.0 °F81 %30.51 in12.0 miEast (90°)2.2 mphScattered Clouds
10:00 AM6.8 °F5.0 °F92 %30.48 in3.1 miCalmPartly Cloudy
10:30 AM14.0 °F10.4 °F86 %30.48 in3.1 miCalmPartly Cloudy
11:00 AM19.4 °F14.0 °F80 %30.48 in3.1 miCalmPartly Cloudy
11:30 AM21.2 °F10.4 °F63 %30.51 in3.7 miCalmPartly Cloudy
12:00 PM19.4 °F12.2 °F74 %30.51 in5.0 miSE (130°)4.5 mphPartly Cloudy
12:30 PM21.2 °F12.2 °F68 %30.51 in5.0 miSSE (150°)4.5 mphPartly Cloudy
1:00 PM21.0 °F11.0 °F53 %30.55 in12.0 miEast (90°)4.5 mphScattered Clouds
1:00 PM21.2 °F12.2 °F68 %30.51 in5.0 miSE (140°)6.7 mphPartly Cloudy
1:30 PM23.0 °F12.2 °F63 %30.51 in5.0 miSE (140°)6.7 mphMostly Cloudy
2:00 PM23.0 °F14.0 °F68 %30.51 in5.0 miSE (140°)6.7 mphMostly Cloudy
2:30 PM24.8 °F14.0 °F64 %30.51 in5.0 miSSE (150°)4.5 mphMostly Cloudy
3:00 PM24.8 °F14.0 °F64 %30.51 in5.0 miSSE (160°)4.5 mphMostly Cloudy
3:30 PM26.6 °F14.0 °F59 %30.51 in5.0 miSSE (150°)4.5 mphMostly Cloudy
4:00 PM24.0 °F12.0 °F48 %30.56 in12.0 miEast (90°)4.5 mphScattered Clouds
4:00 PM26.6 °F14.0 °F59 %30.51 in5.0 miSE (140°)4.5 mphMostly Cloudy
4:30 PM24.8 °F14.0 °F64 %30.54 in5.0 miEast (90°)6.7 mphMostly Cloudy
5:00 PM24.8 °F14.0 °F64 %30.54 in5.0 miEast (90°)4.5 mphMostly Cloudy
5:30 PM24.8 °F12.2 °F59 %30.54 in5.0 miEast (80°)6.7 mphMostly Cloudy
6:00 PM24.8 °F12.2 °F59 %30.54 in5.0 miESE (110°)4.5 mphMostly Cloudy
6:30 PM23.0 °F12.2 °F63 %30.54 in5.0 miEast (90°)6.7 mphMostly Cloudy
7:00 PM22.0 °F11.0 °F50 %30.57 in12.0 miEast (100°)2.2 mphPartly Cloudy
7:00 PM23.0 °F12.2 °F63 %30.54 in5.0 miEast (100°)6.7 mphMostly Cloudy
7:30 PM21.2 °F12.2 °F68 %30.54 in5.0 miESE (110°)4.5 mphMostly Cloudy
8:00 PM15.8 °F10.4 °F79 %30.54 in5.0 miESE (110°)4.5 mphMostly Cloudy
8:30 PM19.4 °F12.2 °F74 %30.54 in5.0 miESE (110°)4.5 mphMostly Cloudy
9:00 PM19.4 °F10.4 °F68 %30.54 in5.0 miEast (90°)6.7 mphMostly Cloudy
9:30 PM17.6 °F10.4 °F73 %30.54 in5.0 miEast (80°)4.5 mphMostly Cloudy
10:00 PM18.0 °F11.0 °F62 %30.59 in12.0 miEast (100°)4.5 mphPartly Cloudy
10:00 PM17.6 °F10.4 °F73 %30.54 in5.0 miEast (100°)4.5 mphMostly Cloudy
10:30 PM12.2 °F6.8 °F79 %30.54 in5.0 miEast (100°)2.2 mphMostly Cloudy
11:00 PM8.6 °F6.8 °F92 %30.57 in5.0 miSE (140°)2.2 mphScattered Clouds
11:30 PM8.6 °F5.0 °F85 %30.57 in4.3 miESE (110°)2.2 mphScattered Clouds
Hourly data recorded from UWGG, located miles away from Sprigino, Russia







STORIES FROM OUR PARTNERS